Sauk Centre, MN

3:48 AM CDT on March 24, 2017 (GMT -0500)
Sauk Centre

Weather History for KD39 - October, 2013

Change the Weather History Date:

Tuesday, October 15, 2013

  Actual Average (KGHW) Record (KGHW)
Temperature  
Mean Temperature 44 °F -  
Max Temperature 46 °F 58 °F 81 °F (1953)
Min Temperature 42 °F 33 °F 19 °F (1991)
Degree Days  
Heating Degree Days 21    
Moisture  
Dew Point 43 °F    
Average Humidity 93    
Maximum Humidity 97    
Minimum Humidity 87    
Precipitation  
Precipitation 0.50 in - - ()
Sea Level Pressure  
Sea Level Pressure 29.80 in    
Wind  
Wind Speed 15 mph (NNE)    
Max Wind Speed 18 mph    
Max Gust Speed 30 mph    
Visibility 8 miles    
Events Rain    
Averages and records for this station are not official NWS values.
T = Trace of Precipitation, MM = Missing Value Source: NWS Daily Summary

Daily Weather History Graph

Daily Weather History Graph

Search for Another Location

Airport or City:

Trip Planner

Search our weather history database for the weather conditions in past years. The results will help you decide how hot, cold, wet, or windy it might be!

Date:

Astronomy

Oct. 15, 2013 Rise Set
Actual Time 7:36 AM CDT 6:33 PM CDT
Civil Twilight 7:06 AM CDT 7:03 PM CDT
Nautical Twilight 6:32 AM CDT 7:37 PM CDT
Astronomical Twilight 5:57 AM CDT 8:12 PM CDT
Moon 4:47 PM CDT (10/15) 3:50 AM CDT (10/15)
Length of Visible Light 11h 56m
Length of Day
10h 56m
Waxing Gibbous, 88% of the Moon is Illuminated
Oct 15
Waxing Gibbous
Oct 18
Full
Oct 26
Last Quarter
Nov 3
New
Nov 9
First Quarter

Hourly Weather History & Observations

Time (CDT) Temp. Windchill Dew Point Humidity Pressure Visibility Wind Dir Wind Speed Gust Speed Precip Events Conditions
12:25 AM 46.4 °F 39.5 °F 42.8 °F 87% 29.91 in 10.0 mi East 17.3 mph 24.2 mph N/A   Overcast
12:45 AM 46.4 °F 40.1 °F 44.6 °F 93% 29.90 in 10.0 mi East 15.0 mph 25.3 mph N/A   Overcast
1:05 AM 46.4 °F 39.2 °F 44.6 °F 93% 29.87 in 7.0 mi East 18.4 mph 27.6 mph N/A   Overcast
1:25 AM 46.4 °F 39.5 °F 44.6 °F 93% 29.84 in 10.0 mi ENE 17.3 mph 23.0 mph N/A   Overcast
1:37 AM 45.7 °F 39.1 °F 44.1 °F 94% 29.85 in 7.0 mi ENE 15.0 mph 23.0 mph 0.01 in Rain Light Rain
1:51 AM 45.5 °F 39.2 °F 44.2 °F 95% 29.85 in 5.0 mi ENE 13.8 mph 18.4 mph 0.02 in Rain Light Rain
2:10 AM 45.5 °F 38.9 °F 44.4 °F 96% 29.84 in 4.0 mi ENE 15.0 mph 23.0 mph 0.02 in Rain Rain
2:31 AM 45.5 °F 38.3 °F 44.6 °F 97% 29.82 in 4.0 mi ENE 17.3 mph 23.0 mph 0.07 in Rain Rain
2:51 AM 45.5 °F 38.6 °F 44.6 °F 97% 29.82 in 4.0 mi ENE 16.1 mph 21.9 mph 0.14 in Rain Rain
3:11 AM 45.5 °F 38.6 °F 44.6 °F 97% 29.80 in 5.0 mi ENE 16.1 mph 24.2 mph 0.02 in Rain Rain
3:30 AM 45.5 °F 38.9 °F 44.6 °F 97% 29.79 in 5.0 mi ENE 15.0 mph 20.7 mph 0.03 in Rain Light Rain
3:51 AM 45.5 °F 38.9 °F 44.2 °F 95% 29.78 in 7.0 mi ENE 15.0 mph 21.9 mph 0.03 in Rain Light Rain
4:11 AM 45.5 °F 38.6 °F 44.2 °F 95% 29.77 in 5.0 mi ENE 16.1 mph 24.2 mph 0.01 in Rain Light Rain
4:31 AM 45.5 °F 39.2 °F 44.2 °F 95% 29.76 in 5.0 mi ENE 13.8 mph 25.3 mph 0.05 in Rain Rain
4:51 AM 45.5 °F 38.3 °F 44.2 °F 95% 29.75 in 4.0 mi ENE 17.3 mph - 0.16 in Rain Rain
5:11 AM 45.1 °F 37.6 °F 44.1 °F 96% 29.75 in 4.0 mi ENE 18.4 mph 25.3 mph 0.01 in Rain Rain
5:31 AM 45.1 °F 38.8 °F 43.9 °F 95% 29.75 in 5.0 mi NE 13.8 mph 19.6 mph 0.02 in Rain Rain
5:50 AM 45.1 °F 39.1 °F 43.9 °F 95% 29.75 in 5.0 mi NE 12.7 mph 20.7 mph 0.02 in   Drizzle
6:11 AM 45.1 °F 38.8 °F 44.1 °F 96% 29.75 in 7.0 mi NE 13.8 mph 20.7 mph 0.01 in Rain Light Rain
6:30 AM 45.0 °F 38.9 °F 43.9 °F 96% 29.74 in 5.0 mi NE 12.7 mph 23.0 mph 0.03 in Rain Rain
6:51 AM 44.8 °F 39.0 °F 43.7 °F 96% 29.74 in 5.0 mi NE 11.5 mph 17.3 mph 0.04 in Rain Light Rain
7:10 AM 44.8 °F 38.0 °F 43.7 °F 96% 29.73 in 7.0 mi NNE 15.0 mph - N/A   Light Drizzle
7:31 AM 44.8 °F 38.0 °F 43.7 °F 96% 29.73 in 7.0 mi NE 15.0 mph 21.9 mph 0.02 in Rain Rain
7:51 AM 44.8 °F 38.0 °F 43.7 °F 96% 29.73 in 7.0 mi NE 15.0 mph 21.9 mph 0.06 in Rain Rain
8:11 AM 44.8 °F 37.7 °F 43.7 °F 96% 29.73 in 7.0 mi NNE 16.1 mph 19.6 mph 0.01 in Rain Light Rain
8:31 AM 45.0 °F 38.5 °F 43.7 °F 95% 29.72 in 10.0 mi NE 13.8 mph 23.0 mph 0.01 in Rain Light Rain
8:51 AM 45.0 °F 37.6 °F 43.7 °F 95% 29.72 in 10.0 mi NE 17.3 mph 23.0 mph 0.01 in   Light Drizzle
9:11 AM 45.0 °F 38.2 °F 43.7 °F 95% 29.72 in 10.0 mi NE 15.0 mph 24.2 mph N/A Rain Rain
9:30 AM 45.0 °F 38.9 °F 43.7 °F 95% 29.73 in 10.0 mi NNE 12.7 mph 23.0 mph N/A Rain Light Rain
9:51 AM 45.1 °F 39.1 °F 43.7 °F 95% 29.73 in 10.0 mi NNE 12.7 mph 23.0 mph 0.01 in Rain Light Rain
10:10 AM 45.5 °F 38.6 °F 43.9 °F 94% 29.73 in 10.0 mi NNE 16.1 mph 24.2 mph N/A Rain Light Rain
10:31 AM 45.5 °F 38.6 °F 43.9 °F 94% 29.73 in 10.0 mi NNE 16.1 mph 25.3 mph N/A Rain Light Rain
10:51 AM 45.5 °F 38.9 °F 43.9 °F 94% 29.73 in 7.0 mi NNE 15.0 mph 21.9 mph 0.01 in Rain Light Rain
11:11 AM 45.5 °F 38.3 °F 43.7 °F 93% 29.73 in 10.0 mi NNE 17.3 mph 24.2 mph N/A Rain Light Rain
11:31 AM 45.1 °F 38.1 °F 43.3 °F 93% 29.73 in 10.0 mi NNE 16.1 mph 26.5 mph N/A Rain Light Rain
11:51 AM 45.0 °F 37.9 °F 43.2 °F 93% 29.74 in 10.0 mi North 16.1 mph 21.9 mph N/A Rain Light Rain
12:11 PM 45.0 °F 37.6 °F 43.0 °F 93% 29.75 in 10.0 mi North 17.3 mph 23.0 mph N/A   Light Drizzle
12:31 PM 45.1 °F 38.4 °F 43.0 °F 92% 29.75 in 10.0 mi North 15.0 mph 23.0 mph N/A   Overcast
12:50 PM 45.1 °F 38.1 °F 42.8 °F 91% 29.75 in 10.0 mi NNE 16.1 mph 26.5 mph N/A   Overcast
1:11 PM 45.5 °F 38.9 °F 42.8 °F 90% 29.75 in 10.0 mi North 15.0 mph - N/A   Overcast
1:31 PM 45.5 °F 38.6 °F 42.8 °F 90% 29.75 in 10.0 mi North 16.1 mph 21.9 mph N/A   Overcast
1:51 PM 45.7 °F 39.5 °F 43.0 °F 90% 29.75 in 10.0 mi North 13.8 mph 19.6 mph N/A   Overcast
2:11 PM 45.5 °F 38.3 °F 43.3 °F 92% 29.75 in 7.0 mi North 17.3 mph - N/A   Light Drizzle
2:30 PM 45.1 °F 39.1 °F 43.9 °F 95% 29.76 in 2.5 mi North 12.7 mph 18.4 mph N/A   Light Drizzle
2:51 PM 45.0 °F 38.2 °F 43.3 °F 94% 29.77 in 3.0 mi North 15.0 mph 23.0 mph N/A   Overcast
3:11 PM 45.0 °F 37.4 °F 43.3 °F 94% 29.77 in 2.5 mi North 18.4 mph - N/A   Overcast
3:31 PM 45.0 °F 37.9 °F 43.5 °F 95% 29.77 in 4.0 mi North 16.1 mph 24.2 mph N/A   Overcast
3:51 PM 45.1 °F 38.8 °F 43.3 °F 93% 29.78 in 7.0 mi North 13.8 mph 24.2 mph N/A   Overcast
4:10 PM 45.5 °F 38.9 °F 43.3 °F 92% 29.78 in 7.0 mi North 15.0 mph 24.2 mph N/A   Overcast
4:31 PM 45.5 °F 39.2 °F 43.2 °F 92% 29.79 in 10.0 mi North 13.8 mph 23.0 mph N/A   Overcast
4:51 PM 45.5 °F 38.1 °F 42.6 °F 90% 29.80 in 10.0 mi North 18.4 mph 25.3 mph N/A   Overcast
5:10 PM 45.1 °F 38.4 °F 42.4 °F 90% 29.80 in 10.0 mi North 15.0 mph 29.9 mph N/A Rain Light Rain
5:31 PM 44.6 °F 37.4 °F 42.8 °F 93% 29.81 in 7.0 mi North 16.1 mph 26.5 mph N/A Rain Light Rain
5:50 PM 44.1 °F 37.4 °F 42.3 °F 93% 29.82 in 5.0 mi North 13.8 mph 23.0 mph N/A   Light Drizzle
6:11 PM 43.7 °F 36.6 °F 42.3 °F 95% 29.83 in 4.0 mi North 15.0 mph 21.9 mph N/A Rain Light Rain
6:31 PM 43.7 °F 36.3 °F 41.5 °F 92% 29.84 in 10.0 mi North 16.1 mph 23.0 mph N/A   Overcast
6:51 PM 43.5 °F 36.1 °F 41.2 °F 91% 29.84 in 10.0 mi North 16.1 mph 21.9 mph N/A   Light Drizzle
7:11 PM 43.0 °F 35.1 °F 40.6 °F 91% 29.86 in 10.0 mi North 17.3 mph 29.9 mph N/A   Drizzle
7:31 PM 43.0 °F 35.1 °F 40.8 °F 92% 29.87 in 10.0 mi North 17.3 mph 24.2 mph N/A   Light Drizzle
7:51 PM 43.0 °F 35.4 °F 40.3 °F 90% 29.87 in 10.0 mi North 16.1 mph 26.5 mph N/A   Light Drizzle
8:11 PM 43.0 °F 37.7 °F 40.6 °F 91% 29.88 in 10.0 mi North 9.2 mph 18.4 mph N/A   Overcast
8:31 PM 43.2 °F 37.0 °F 40.3 °F 90% 29.89 in 10.0 mi North 11.5 mph 19.6 mph N/A   Overcast
8:51 PM 43.3 °F 35.5 °F 40.1 °F 88% 29.89 in 10.0 mi North 17.3 mph 21.9 mph N/A   Overcast
9:10 PM 43.5 °F 37.5 °F 40.5 °F 89% 29.90 in 10.0 mi North 11.5 mph 19.6 mph N/A   Overcast
9:31 PM 43.3 °F 36.5 °F 40.5 °F 90% 29.90 in 10.0 mi NNW 13.8 mph 18.4 mph N/A   Light Drizzle
9:51 PM 43.2 °F 37.0 °F 40.5 °F 90% 29.91 in 10.0 mi North 11.5 mph - N/A   Light Drizzle
10:11 PM 43.2 °F 36.6 °F 40.5 °F 90% 29.91 in 10.0 mi North 12.7 mph 21.9 mph N/A   Overcast
10:30 PM 43.2 °F 35.6 °F 40.5 °F 90% 29.91 in 10.0 mi NNW 16.1 mph - N/A   Overcast
10:51 PM 43.0 °F 36.4 °F 40.5 °F 91% 29.92 in 10.0 mi NNW 12.7 mph 19.6 mph N/A   Overcast
11:11 PM 42.4 °F 37.0 °F 40.6 °F 93% 29.92 in 5.0 mi North 9.2 mph 18.4 mph N/A   Drizzle
11:31 PM 42.3 °F 34.8 °F 40.6 °F 94% 29.92 in 7.0 mi NNW 15.0 mph - N/A Rain Light Rain
11:50 PM 42.3 °F 35.5 °F 40.5 °F 93% 29.92 in 7.0 mi NNW 12.7 mph - N/A   Overcast